Weather History for Huntsville Madison, AL

Change the Weather History Date:

Tuesday, April 23, 2013

  Actual Average (KHSV) Record (KHSV)
Temperature  
Mean Temperature 62 °F 64 °F  
Max Temperature 73 °F 76 °F 94 °F (1925)
Min Temperature 51 °F 52 °F 32 °F (1927)
Degree Days  
Heating Degree Days 3 4  
Month to date heating degree days 135  
Since 1 July heating degree days 2955  
Cooling Degree Days 0 2  
Month to date cooling degree days 37  
Year to date cooling degree days 51  
Growing Degree Days 12 (Base 50)    
Moisture  
Dew Point 40 °F    
Average Humidity 45    
Maximum Humidity 76    
Minimum Humidity 28    
Precipitation  
Precipitation 0.00 in 0.14 in 1.69 in (1983)
Month to date precipitation 3.27  
Year to date precipitation 18.21  
Snow  
Snow 0.00 in - - ()
Month to date snowfall  
Since 1 July snowfall  
Snow Depth -    
Sea Level Pressure  
Sea Level Pressure 30.11 in    
Wind  
Wind Speed 6 mph (SSE)    
Max Wind Speed 15 mph    
Max Gust Speed 22 mph    
Visibility 10 miles    
Events      
T = Trace of Precipitation, MM = Missing Value Source: NWS Daily Summary

Daily Weather History Graph

Daily Weather History Graph

Search for Another Location

Airport:

Trip Planner

Search our weather history database for the weather conditions in past years. The results will help you decide how hot, cold, wet, or windy it might be!

Date:

Astronomy

Apr. 23, 2013 Rise Set
Actual Time 6:04 AM CDT 7:25 PM CDT
Civil Twilight 5:37 AM CDT 7:51 PM CDT
Nautical Twilight 5:06 AM CDT 8:23 PM CDT
Astronomical Twilight 4:33 AM CDT 8:56 PM CDT
Moon 5:23 PM CDT (4/23) 4:26 AM CDT (4/23)
Length of Visible Light 14h 13m
Length of Day
13h 20m
Waxing Gibbous, 94% of the Moon is Illuminated
Apr 23
Waxing Gibbous
Apr 25
Full
May 2
Last Quarter
May 9
New
May 17
First Quarter

Hourly Weather History & Observations

Time (CDT) Temp. Dew Point Humidity Pressure Visibility Wind Dir Wind Speed Gust Speed Precip Events Conditions
12:15 AM 51.8 °F 44.6 °F 76% 30.14 in 10.0 mi Calm Calm - N/A   Clear
12:35 AM 51.8 °F 44.6 °F 76% 30.14 in 10.0 mi SE 3.5 mph - N/A   Clear
12:55 AM 53.6 °F 42.8 °F 67% 30.14 in 10.0 mi Calm Calm - N/A   Clear
1:15 AM 55.4 °F 42.8 °F 63% 30.14 in 10.0 mi SE 4.6 mph - N/A   Clear
1:35 AM 53.6 °F 42.8 °F 67% 30.14 in 10.0 mi Calm Calm - N/A   Clear
1:55 AM 53.6 °F 42.8 °F 67% 30.14 in 10.0 mi Calm Calm - N/A   Clear
2:15 AM 53.6 °F 42.8 °F 67% 30.14 in 10.0 mi Calm Calm - N/A   Clear
2:35 AM 53.6 °F 42.8 °F 67% 30.14 in 10.0 mi Calm Calm - N/A   Clear
2:55 AM 53.6 °F 42.8 °F 67% 30.14 in 10.0 mi South 3.5 mph - N/A   Clear
3:15 AM 55.4 °F 42.8 °F 63% 30.13 in 10.0 mi SE 6.9 mph - N/A   Clear
3:35 AM 55.4 °F 42.8 °F 63% 30.14 in 10.0 mi SSE 6.9 mph - N/A   Clear
3:55 AM 55.4 °F 41.0 °F 58% 30.15 in 10.0 mi SE 5.8 mph - N/A   Clear
4:15 AM 55.4 °F 41.0 °F 58% 30.14 in 10.0 mi SE 9.2 mph - N/A   Scattered Clouds
4:35 AM 55.4 °F 37.4 °F 51% 30.13 in 10.0 mi SE 10.4 mph 20.7 mph N/A   Scattered Clouds
5:15 AM 55.4 °F 37.4 °F 51% 30.14 in 10.0 mi SSE 5.8 mph - N/A   Clear
5:35 AM 53.6 °F 37.4 °F 54% 30.13 in 10.0 mi SSE 6.9 mph - N/A   Clear
5:55 AM 53.6 °F 37.4 °F 54% 30.14 in 10.0 mi SSE 5.8 mph - N/A   Clear
6:15 AM 53.6 °F 35.6 °F 51% 30.14 in 10.0 mi SE 5.8 mph - N/A   Scattered Clouds
6:35 AM 53.6 °F 35.6 °F 51% 30.14 in 10.0 mi SSE 4.6 mph - N/A   Clear
6:55 AM 53.6 °F 33.8 °F 47% 30.15 in 10.0 mi SE 4.6 mph - N/A   Scattered Clouds
7:15 AM 55.4 °F 33.8 °F 44% 30.16 in 10.0 mi SSE 6.9 mph - N/A   Scattered Clouds
7:35 AM 55.4 °F 32.0 °F 41% 30.16 in 10.0 mi SE 8.1 mph - N/A   Clear
7:55 AM 57.2 °F 32.0 °F 38% 30.17 in 10.0 mi SE 6.9 mph - N/A   Scattered Clouds
8:15 AM 59.0 °F 30.2 °F 34% 30.17 in 10.0 mi SE 11.5 mph 17.3 mph N/A   Scattered Clouds
8:35 AM 59.0 °F 30.2 °F 34% 30.17 in 10.0 mi SSE 10.4 mph - N/A   Scattered Clouds
8:55 AM 60.8 °F 30.2 °F 31% 30.17 in 10.0 mi SSE 10.4 mph 18.4 mph N/A   Clear
9:15 AM 60.8 °F 28.4 °F 29% 30.18 in 10.0 mi SSE 12.7 mph 19.6 mph N/A   Clear
9:35 AM 62.6 °F 30.2 °F 30% 30.18 in 10.0 mi SSE 12.7 mph 18.4 mph N/A   Mostly Cloudy
9:55 AM 62.6 °F 30.2 °F 30% 30.18 in 10.0 mi SSE 9.2 mph 17.3 mph N/A   Mostly Cloudy
10:15 AM 64.4 °F 30.2 °F 28% 30.18 in 10.0 mi SSE 9.2 mph - N/A   Overcast
10:35 AM 64.4 °F 32.0 °F 30% 30.17 in 10.0 mi SSE 9.2 mph - N/A   Overcast
10:55 AM 64.4 °F 32.0 °F 30% 30.17 in 10.0 mi SSE 11.5 mph 17.3 mph N/A   Scattered Clouds
11:15 AM 66.2 °F 32.0 °F 28% 30.17 in 10.0 mi SSE 10.4 mph - N/A   Clear
11:35 AM 66.2 °F 33.8 °F 30% 30.17 in 10.0 mi South 10.4 mph 18.4 mph N/A   Clear
11:55 AM 68.0 °F 33.8 °F 28% 30.16 in 10.0 mi SSE 13.8 mph 19.6 mph N/A   Clear
12:15 PM 68.0 °F 35.6 °F 30% 30.15 in 10.0 mi SSE 13.8 mph - N/A   Clear
12:35 PM 69.8 °F 35.6 °F 28% 30.14 in 10.0 mi SSE 6.9 mph - N/A   Clear
12:55 PM 69.8 °F 37.4 °F 31% 30.13 in 10.0 mi SSW 10.4 mph - N/A   Clear
1:15 PM 69.8 °F 39.2 °F 33% 30.13 in 10.0 mi SSW 9.2 mph - N/A   Clear
1:35 PM 69.8 °F 42.8 °F 38% 30.12 in 10.0 mi SW 9.2 mph 16.1 mph N/A   Clear
2:15 PM 71.6 °F 42.8 °F 35% 30.10 in 10.0 mi South 9.2 mph - N/A   Clear
2:35 PM 71.6 °F 42.8 °F 35% 30.10 in 10.0 mi South 10.4 mph - N/A   Scattered Clouds
2:55 PM 71.6 °F 42.8 °F 35% 30.09 in 10.0 mi South 12.7 mph 18.4 mph N/A   Scattered Clouds
3:15 PM 73.4 °F 39.2 °F 29% 30.08 in 10.0 mi South 10.4 mph - N/A   Scattered Clouds
3:35 PM 71.6 °F 41.0 °F 33% 30.06 in 10.0 mi South 9.2 mph - N/A   Scattered Clouds
3:55 PM 71.6 °F 41.0 °F 33% 30.05 in 10.0 mi South 12.7 mph 17.3 mph N/A   Clear
4:15 PM 73.4 °F 39.2 °F 29% 30.04 in 10.0 mi South 11.5 mph - N/A   Clear
4:35 PM 73.4 °F 39.2 °F 29% 30.03 in 10.0 mi South 15.0 mph - N/A   Clear
4:55 PM 73.4 °F 41.0 °F 31% 30.03 in 10.0 mi South 12.7 mph 17.3 mph N/A   Clear
5:15 PM 73.4 °F 41.0 °F 31% 30.03 in 10.0 mi South 15.0 mph 20.7 mph N/A   Clear
5:35 PM 73.4 °F 39.2 °F 29% 30.03 in 10.0 mi South 11.5 mph 17.3 mph N/A   Clear
5:55 PM 73.4 °F 41.0 °F 31% 30.03 in 10.0 mi South 15.0 mph 21.9 mph N/A   Clear
6:15 PM 73.4 °F 41.0 °F 31% 30.03 in 10.0 mi South 13.8 mph - N/A   Clear
6:35 PM 69.8 °F 44.6 °F 40% 30.03 in 10.0 mi SSW 10.4 mph - N/A   Clear
6:55 PM 71.6 °F 42.8 °F 35% 30.03 in 10.0 mi South 9.2 mph - N/A   Clear
7:15 PM 69.8 °F 42.8 °F 38% 30.02 in 10.0 mi South 8.1 mph - N/A   Clear
7:35 PM 69.8 °F 42.8 °F 38% 30.03 in 10.0 mi South 4.6 mph - N/A   Clear
7:55 PM 68.0 °F 42.8 °F 40% 30.03 in 10.0 mi SSE 3.5 mph - N/A   Clear
8:15 PM 62.6 °F 46.4 °F 55% 30.04 in 10.0 mi SSW 3.5 mph - N/A   Clear
8:35 PM 64.4 °F 46.4 °F 52% 30.04 in 10.0 mi Calm Calm - N/A   Clear
8:55 PM 62.6 °F 46.4 °F 55% 30.04 in 10.0 mi South 4.6 mph - N/A   Clear
9:15 PM 62.6 °F 46.4 °F 55% 30.05 in 10.0 mi South 3.5 mph - N/A   Clear
9:35 PM 59.0 °F 46.4 °F 63% 30.05 in 10.0 mi Calm Calm - N/A   Clear
9:55 PM 62.6 °F 46.4 °F 55% 30.05 in 10.0 mi South 3.5 mph - N/A   Clear
10:15 PM 60.8 °F 46.4 °F 59% 30.05 in 10.0 mi Calm Calm - N/A   Clear
10:35 PM 60.8 °F 48.2 °F 63% 30.06 in 10.0 mi Calm Calm - N/A   Mostly Cloudy
10:55 PM 62.6 °F 46.4 °F 55% 30.06 in 10.0 mi South 4.6 mph - N/A   Overcast
11:15 PM 64.4 °F 46.4 °F 52% 30.06 in 10.0 mi South 5.8 mph - N/A   Overcast
11:35 PM 64.4 °F 46.4 °F 52% 30.06 in 10.0 mi South 6.9 mph - N/A   Overcast
11:55 PM 66.2 °F 46.4 °F 49% 30.06 in 10.0 mi South 9.2 mph - N/A   Overcast